sat.trackr.live / text

‹ back to catalog

STARLINK-6251

NORAD 57087 · 2023-088AR

PAYLOAD ACTIVE UNKNOWN

§ Identity

Operator
Country
US
Launch date
2023-06-22
Launch site
AFWTR
Launch vehicle
Mass (kg)
RCS (m²)

Purposes: comms

External: N2YO · Heavens-Above · Gunter

§ Orbital elements

Epoch: 2026-09-19T21:10:44.183712Z

Period
94.27 min
Inclination
43.0028°
Eccentricity
0.0001037
Mean motion
15.27577499 rev/d
Perigee alt
482.3 km
Apogee alt
483.8 km
Semi-major
6,861.2 km
B*
4.3866e-5
RAAN
79.0822°
Arg perigee
267.9117°
Mean anomaly
92.1616°
Rev number
18,020

§ Raw data

STARLINK-62511 57087U 23088AR  26262.88245583  .00000945  00000+0  43866-4 0  99972 57087  43.0028  79.0822 0001037 267.9117  92.1616 15.27577499180200

JSON: /api/v1/satellites/57087 · /tle

For live sub-satellite position, see the globe view (requires WebGL).

§ Visibility from observer

Set your observer location to see the next 7 days of passes ≥ 10°. The values pass through the URL so the page stays shareable.

No JS? Fill the form by hand. The geolocation button needs JavaScript.